sat.trackr.live / text

‹ back to catalog

STARLINK-1555

NORAD 46032 · 2020-055F

PAYLOAD ACTIVE UNKNOWN

§ Identity

Operator
Country
US
Launch date
2020-08-07
Launch site
AFETR
Launch vehicle
Mass (kg)
RCS (m²)

Purposes: comms

External: N2YO · Heavens-Above · Gunter

§ Orbital elements

Epoch: 2026-05-25T02:44:41.593920Z

Period
94.11 min
Inclination
53.1578°
Eccentricity
0.0001237
Mean motion
15.30191404 rev/d
Perigee alt
474.4 km
Apogee alt
476.1 km
Semi-major
6,853.4 km
B*
4.6144e-5
RAAN
131.7108°
Arg perigee
79.0939°
Mean anomaly
281.0201°
Rev number
32,059

§ Raw data

STARLINK-15551 46032U 20055F   26145.11437030  .00001007  00000+0  46144-4 0  99942 46032  53.1578 131.7108 0001237  79.0939 281.0201 15.30191404320598

JSON: /api/v1/satellites/46032 · /tle

For live sub-satellite position, see the globe view (requires WebGL).

§ Visibility from observer

Set your observer location to see the next 7 days of passes ≥ 10°. The values pass through the URL so the page stays shareable.

No JS? Fill the form by hand. The geolocation button needs JavaScript.